#timestamp,LO_Frequency,Hit 
1498615215.1,286047124.4,N
1498615216.0,286047124.4,N
1498615235.8,286047121.9,N
1498615255.7,286047121.5,N
1498615275.5,286047121.7,N
1498615295.3,286047124.2,N
1498615315.1,286047122.5,N
1498615335.9,286047120.3,N
1498615355.7,286047122.5,N
1498615375.5,286047120.2,N
1498615395.4,286047122.6,N
1498615415.2,286047122.0,N
1498615435.0,286047121.6,N
1498615435.9,286047121.6,N
1498615455.8,286047121.6,N
1498615475.6,286047121.9,N
1498615495.4,286047121.7,N
1498615515.3,286047122.1,N
1498615535.1,286047123.0,N
1498615536.0,286047123.0,N
1498615555.8,286047125.9,N
1498615575.7,286047127.4,N
1498615595.5,286047125.8,N
1498615615.3,286047125.3,N
1498615635.2,286047124.4,N
1498615655.9,286047125.8,N
1498615675.7,286047122.9,N
1498615695.6,286047125.8,N
1498615715.4,286047127.6,N
1498615735.2,286047124.9,N
1498615755.0,286047124.7,N
1498615755.9,286047124.7,N
1498615775.8,286047125.6,N
1498615795.6,286047125.0,N
1498615815.4,286047125.3,N
1498615835.3,286047125.0,N
1498615855.1,286047127.4,N
1498615875.8,286047128.4,N
1498615895.7,286047127.9,N
1498615915.5,286047126.3,N
1498615935.3,286047129.1,N
1498615955.2,286047127.3,N
1498615975.9,286047127.3,N
1498615995.7,286047128.9,N
1498616015.5,286047126.9,N
1498616035.4,286047124.9,N
1498616055.2,286047127.6,N
1498616075.0,286047127.4,N
1498616075.9,286047127.4,N
1498616095.8,286047126.4,N
1498616115.6,286047126.4,N
1498616135.4,286047127.3,N
1498616155.3,286047127.5,N
1498616175.1,286047125.1,N
1498616176.0,286047125.1,N
1498616195.8,286047125.4,N
1498616215.7,286047124.6,N
1498616235.5,286047125.5,N
1498616255.3,286047122.9,N
1498616275.2,286047125.2,N
1498616295.9,286047127.6,N
1498616315.7,286047124.5,N
1498616335.6,286047124.5,N
1498616355.4,286047125.4,N
1498616375.2,286047125.1,N
1498616395.0,286047127.5,N
1498616395.9,286047127.5,N
1498616415.8,286047127.2,N
1498616435.6,286047126.7,N
1498616455.4,286047128.6,N
1498616475.3,286047128.9,N
1498616495.1,286047128.6,N
1498616515.8,286047130.2,N
1498616535.7,286047130.5,N
1498616555.5,286047127.8,N
1498616575.3,286047127.7,N
1498616595.2,286047130.5,N
1498616615.9,286047129.7,N
1498616635.7,286047131.3,Y
1498616655.6,286047057.6,N
1498616675.4,286047057.6,N
1498616695.2,286047056.0,N
1498616715.1,286047057.6,N
1498616716.0,286047057.6,N
1498616735.8,286047055.7,N
1498616755.6,286047055.7,N
1498616775.4,286047058.2,N
1498616795.3,286047057.0,N
1498616815.1,286047057.2,N
1498616835.8,286047054.6,N
1498616855.7,286047056.1,N
1498616875.5,286047055.7,N
1498616895.3,286047058.0,N
1498616915.2,286047057.8,N
1498616935.9,286047059.9,N
1498616955.7,286047058.6,N
1498616975.6,286047055.9,N
1498616995.4,286047057.7,N
1498617015.2,286047058.3,N
1498617035.1,286047057.3,N
1498617036.0,286047057.3,N
1498617055.8,286047058.1,N
1498617075.6,286047058.8,N
1498617095.4,286047058.3,N
1498617115.3,286047056.0,N
1498617135.1,286047054.4,N
1498617155.8,286047054.8,N
1498617175.7,286047054.2,N
1498617195.5,286047054.7,N
1498617215.3,286047054.2,N
1498617235.2,286047056.3,N
1498617255.9,286047058.0,N
1498617275.7,286047059.5,N
1498617295.6,286047062.0,N
1498617315.4,286047062.0,N
1498617335.2,286047058.7,N
1498617355.1,286047058.6,N
1498617356.0,286047058.6,N
1498617375.8,286047057.2,N
1498617395.6,286047056.8,N
1498617415.5,286047056.6,N
1498617435.3,286047058.8,N
1498617455.1,286047055.8,N
1498617475.8,286047055.8,N
1498617495.7,286047056.0,N
1498617515.5,286047056.9,N
1498617535.3,286047055.7,N
1498617555.2,286047057.1,N
1498617575.9,286047056.8,N
1498617595.7,286047055.8,N
1498617615.6,286047057.9,N
1498617635.4,286047057.3,N
1498617655.2,286047057.6,N
1498617675.1,286047057.4,N
1498617676.0,286047057.4,N
1498617695.8,286047059.8,N
1498617715.6,286047057.9,N
1498617735.5,286047056.5,N
1498617755.3,286047054.1,N
1498617775.1,286047056.7,N
1498617795.9,286047054.9,N
1498617815.7,286047057.8,N
1498617835.5,286047059.1,N
1498617855.3,286047062.0,N
1498617875.2,286047059.7,N
1498617895.0,286047060.0,N
1498617895.9,286047060.0,N
1498617915.7,286047059.4,N
1498617935.6,286047060.4,N
1498617955.4,286047060.0,N
1498617975.2,286047059.2,N
1498617995.1,286047061.8,N
1498617996.0,286047061.8,N
1498618015.8,286047061.1,N
1498618035.6,286047060.7,N
1498618055.5,286047059.0,N
1498618075.3,286047060.1,N
1498618095.1,286047062.0,N
1498618115.9,286047063.2,N
1498618135.7,286047065.1,N
1498618155.5,286047064.0,N
1498618175.3,286047063.0,N
1498618195.2,286047062.7,N
1498618215.0,286047062.9,N
1498618215.9,286047062.9,N
1498618235.7,286047063.3,N
1498618255.6,286047063.5,N
1498618275.4,286047061.1,N
1498618295.2,286047063.0,N
1498618315.1,286047060.8,N
1498618316.0,286047060.8,N
1498618335.8,286047062.3,N
1498618355.6,286047064.1,N
1498618375.5,286047063.7,N
1498618395.3,286047065.5,N
1498618415.1,286047067.8,N
1498618435.9,286047069.8,N
1498618455.7,286047069.9,N
1498618475.5,286047069.9,N
1498618495.4,286047071.4,N
1498618515.2,286047068.7,N
1498618535.0,286047067.5,N
1498618535.9,286047067.5,N
1498618555.8,286047069.6,N
1498618575.6,286047069.1,N
1498618595.4,286047072.7,N
1498618615.2,286047072.8,N
1498618635.1,286047070.4,N
1498618636.0,286047070.4,N
1498618655.8,286047071.4,N
1498618675.6,286047070.1,N
1498618695.5,286047072.9,N
1498618715.3,286047072.9,N
1498618735.1,286047072.8,N
1498618755.9,286047072.3,N
1498618775.7,286047072.8,N
1498618795.5,286047072.8,N
